sat.trackr.live / text

‹ back to catalog

STARLINK-37267

NORAD 68745 · 2026-082T

PAYLOAD ACTIVE UNKNOWN

§ Identity

Operator
Country
US
Launch date
2026-04-15
Launch site
AFWTR
Launch vehicle
Mass (kg)
RCS (m²)

Purposes: comms

External: N2YO · Heavens-Above · Gunter

§ Orbital elements

Epoch: 2026-05-25T04:00:03.998880Z

Period
92.73 min
Inclination
97.2854°
Eccentricity
0.0001970
Mean motion
15.52843729 rev/d
Perigee alt
407.1 km
Apogee alt
409.8 km
Semi-major
6,786.6 km
B*
-3.4126e-2
RAAN
8.8141°
Arg perigee
92.5995°
Mean anomaly
77.8043°
Rev number
600

§ Raw data

STARLINK-372671 68745U 26082T   26145.16671295 -.01869053  00000+0 -34126-1 0  99932 68745  97.2854   8.8141 0001970  92.5995  77.8043 15.52843729  6006

JSON: /api/v1/satellites/68745 · /tle

For live sub-satellite position, see the globe view (requires WebGL).

§ Visibility from observer

Set your observer location to see the next 7 days of passes ≥ 10°. The values pass through the URL so the page stays shareable.

No JS? Fill the form by hand. The geolocation button needs JavaScript.